| time (UTC) | temp F | wind direction | speed knots | gust knots | rain 1hr in | rain 24hr in | rain mn in | humidity % | barometer mb |
| 20260509082218 | 40 | 131 | 1.7 | 1.7 | 0.00 | 0.00 | 0.00 | 90 | 1011.6 |
| 20260509081715 | 40 | 161 | 0.0 | 0.0 | 0.00 | 0.00 | 0.00 | 90 | 1011.7 |
| 20260509081212 | 40 | 155 | 0.9 | 0.9 | 0.00 | 0.00 | 0.00 | 90 | 1011.5 |
| 20260509080711 | 40 | 155 | 0.0 | 0.0 | 0.00 | 0.00 | 0.00 | 90 | 1011.7 |
| 20260509080208 | 40 | 176 | 0.0 | 0.0 | 0.00 | 0.00 | 0.00 | 90 | 1011.6 |
| 20260509075706 | 40 | 176 | 0.0 | 0.0 | 0.00 | 0.00 | 0.00 | 90 | 1011.8 |
| 20260509075203 | 40 | 176 | 0.0 | 0.0 | 0.00 | 0.00 | 0.00 | 90 | 1011.5 |
| 20260509074700 | 40 | 176 | 0.0 | 0.0 | 0.00 | 0.00 | 0.00 | 90 | 1011.5 |
| 20260509074157 | 40 | 176 | 0.0 | 0.0 | 0.00 | 0.00 | 0.00 | 90 | 1011.4 |
| 20260509073654 | 40 | 176 | 0.0 | 0.0 | 0.00 | 0.00 | 0.00 | 89 | 1011.7 |
| 20260509073149 | 40 | 176 | 0.0 | 0.0 | 0.00 | 0.00 | 0.00 | 89 | 1011.7 |
| 20260509072647 | 40 | 176 | 0.0 | 0.0 | 0.00 | 0.00 | 0.00 | 89 | 1011.6 |
| 20260509072143 | 40 | 176 | 0.0 | 0.0 | 0.00 | 0.00 | 0.00 | 89 | 1011.6 |
| 20260509071640 | 40 | 176 | 0.0 | 0.0 | 0.00 | 0.00 | 0.00 | 89 | 1011.7 |
| 20260509071137 | 39 | 176 | 0.0 | 0.0 | 0.00 | 0.00 | 0.00 | 89 | 1011.6 |
| 20260509070634 | 39 | 176 | 0.0 | 0.0 | 0.00 | 0.00 | 0.00 | 89 | 1011.5 |
| 20260509070131 | 39 | 176 | 0.0 | 0.0 | 0.00 | 0.00 | 0.00 | 89 | 1011.5 |
| 20260509065626 | 39 | 176 | 0.0 | 0.0 | 0.00 | 0.00 | 0.00 | 89 | 1011.5 |
| 20260509065123 | 39 | 176 | 0.9 | 0.9 | 0.00 | 0.00 | 0.00 | 89 | 1011.5 |
| 20260509064620 | 40 | 176 | 0.0 | 0.0 | 0.00 | 0.00 | 0.00 | 89 | 1011.7 |
| 20260509064118 | 39 | 176 | 0.0 | 0.0 | 0.00 | 0.00 | 0.00 | 89 | 1011.8 |
| 20260509063614 | 40 | 176 | 0.9 | 0.9 | 0.00 | 0.00 | 0.00 | 89 | 1011.7 |
| 20260509063111 | 40 | 176 | 0.0 | 0.0 | 0.00 | 0.00 | 0.00 | 88 | 1011.8 |
| 20260509062608 | 40 | 176 | 0.0 | 0.0 | 0.00 | 0.00 | 0.00 | 88 | 1011.9 |
| 20260509062105 | 40 | 176 | 0.0 | 0.0 | 0.00 | 0.00 | 0.00 | 88 | 1011.8 |
| 20260509061602 | 39 | 176 | 0.0 | 0.0 | 0.00 | 0.00 | 0.00 | 88 | 1012.1 |
| 20260509061059 | 39 | 176 | 0.0 | 0.0 | 0.00 | 0.00 | 0.00 | 88 | 1012.2 |
| 20260509060557 | 39 | 176 | 0.9 | 0.9 | 0.00 | 0.00 | 0.00 | 88 | 1012.2 |
| 20260509060052 | 39 | 176 | 0.9 | 0.9 | 0.00 | 0.00 | 0.00 | 88 | 1012.1 |
| 20260509055548 | 39 | 176 | 0.0 | 0.0 | 0.00 | 0.00 | 0.00 | 88 | 1012.2 |
| 20260509055044 | 39 | 177 | 0.0 | 0.0 | 0.00 | 0.00 | 0.00 | 88 | 1012.3 |
| 20260509054541 | 39 | 177 | 0.0 | 0.0 | 0.00 | 0.00 | 0.00 | 88 | 1012.3 |
| 20260509054039 | 39 | 177 | 0.0 | 0.0 | 0.00 | 0.00 | 0.00 | 87 | 1012.2 |
| 20260509053538 | 39 | 177 | 0.0 | 0.0 | 0.00 | 0.00 | 0.00 | 87 | 1012.3 |
| 20260509053034 | 39 | 177 | 0.0 | 0.0 | 0.00 | 0.00 | 0.00 | 87 | 1012.2 |
| 20260509052532 | 39 | 177 | 0.0 | 0.0 | 0.00 | 0.00 | 0.00 | 87 | 1012.2 |
| 20260509052030 | 39 | 178 | 0.0 | 0.0 | 0.00 | 0.00 | 0.00 | 87 | 1012.2 |
| 20260509051527 | 39 | 179 | 0.0 | 0.0 | 0.00 | 0.00 | 0.00 | 87 | 1012.4 |
| 20260509051024 | 39 | 177 | 0.0 | 0.9 | 0.00 | 0.00 | 0.00 | 87 | 1012.4 |
| 20260509050521 | 39 | 166 | 0.9 | 0.9 | 0.00 | 0.00 | 0.00 | 87 | 1012.5 |
| 20260509050017 | 39 | 175 | 0.0 | 0.0 | 0.00 | 0.00 | 0.00 | 87 | 1012.3 |
| 20260509045515 | 39 | 158 | 0.0 | 0.0 | 0.00 | 0.00 | 0.00 | 87 | 1012.1 |
| 20260509045012 | 39 | 138 | 0.9 | 0.9 | 0.00 | 0.00 | 0.00 | 87 | 1012.6 |
| 20260509044509 | 39 | 147 | 0.9 | 0.9 | 0.00 | 0.00 | 0.00 | 87 | 1012.6 |
| 20260509044007 | 39 | 148 | 0.0 | 0.0 | 0.00 | 0.00 | 0.00 | 86 | 1012.4 |
| 20260509043502 | 39 | 149 | 0.0 | 0.0 | 0.00 | 0.00 | 0.00 | 86 | 1012.7 |
| 20260509042957 | 38 | 148 | 0.0 | 0.0 | 0.00 | 0.00 | 0.00 | 86 | 1012.4 |
| 20260509042455 | 39 | 148 | 0.0 | 0.0 | 0.00 | 0.00 | 0.00 | 86 | 1012.6 |
| 20260509041950 | 39 | 149 | 0.0 | 0.0 | 0.00 | 0.00 | 0.00 | 86 | 1012.5 |
| 20260509041448 | 39 | 150 | 0.9 | 0.9 | 0.00 | 0.00 | 0.00 | 86 | 1012.4 |
| 20260509040946 | 39 | 152 | 0.0 | 0.0 | 0.00 | 0.00 | 0.00 | 85 | 1012.9 |
| 20260509040444 | 38 | 152 | 0.0 | 0.0 | 0.00 | 0.00 | 0.00 | 85 | 1012.6 |
| 20260509035940 | 38 | 152 | 0.0 | 0.0 | 0.00 | 0.07 | 0.07 | 85 | 1012.7 |
| 20260509035437 | 38 | 151 | 0.0 | 0.0 | 0.00 | 0.07 | 0.07 | 84 | 1012.7 |
| 20260509034933 | 38 | 174 | 0.0 | 0.0 | 0.00 | 0.07 | 0.07 | 84 | 1012.5 |
| 20260509034431 | 38 | 176 | 0.9 | 0.9 | 0.00 | 0.07 | 0.07 | 84 | 1012.5 |
| 20260509033928 | 39 | 66 | 2.6 | 2.6 | 0.00 | 0.07 | 0.07 | 84 | 1012.6 |
| 20260509033425 | 39 | 100 | 1.7 | 1.7 | 0.00 | 0.07 | 0.07 | 83 | 1012.6 |
| 20260509032922 | 39 | 187 | 0.0 | 0.0 | 0.00 | 0.07 | 0.07 | 83 | 1012.5 |
| 20260509032420 | 39 | 191 | 0.9 | 0.9 | 0.00 | 0.07 | 0.07 | 82 | 1012.4 |
| 20260509031917 | 40 | 151 | 0.0 | 0.0 | 0.00 | 0.07 | 0.07 | 82 | 1012.5 |
| 20260509031414 | 40 | 152 | 0.0 | 0.0 | 0.00 | 0.07 | 0.07 | 82 | 1012.6 |
| 20260509030911 | 40 | 151 | 0.9 | 0.9 | 0.00 | 0.07 | 0.07 | 81 | 1012.8 |
| 20260509030410 | 39 | 174 | 0.0 | 0.0 | 0.00 | 0.07 | 0.07 | 80 | 1012.8 |
| 20260509025907 | 40 | 111 | 0.9 | 1.7 | 0.00 | 0.07 | 0.07 | 80 | 1012.6 |
| 20260509025402 | 40 | 153 | 0.9 | 0.9 | 0.00 | 0.07 | 0.07 | 79 | 1012.7 |
| 20260509024857 | 40 | 106 | 1.7 | 1.7 | 0.00 | 0.07 | 0.07 | 79 | 1012.7 |
| 20260509024353 | 40 | 117 | 0.9 | 0.9 | 0.00 | 0.07 | 0.07 | 78 | 1012.7 |
| 20260509023851 | 41 | 132 | 0.9 | 0.9 | 0.00 | 0.07 | 0.07 | 77 | 1012.7 |
| 20260509023348 | 41 | 110 | 1.7 | 1.7 | 0.00 | 0.07 | 0.07 | 77 | 1012.7 |
| 20260509022844 | 41 | 134 | 0.9 | 0.9 | 0.00 | 0.07 | 0.07 | 76 | 1012.7 |
| 20260509022342 | 41 | 131 | 0.9 | 0.9 | 0.00 | 0.07 | 0.07 | 76 | 1012.7 |
| 20260509021838 | 42 | 140 | 0.0 | 0.0 | 0.00 | 0.07 | 0.07 | 75 | 1012.6 |
| 20260509021336 | 42 | 111 | 1.7 | 1.7 | 0.00 | 0.07 | 0.07 | 75 | 1012.6 |
| 20260509020833 | 43 | 106 | 1.7 | 1.7 | 0.00 | 0.07 | 0.07 | 75 | 1012.8 |
| 20260509020332 | 43 | 139 | 0.9 | 1.7 | 0.00 | 0.07 | 0.07 | 74 | 1012.7 |
| 20260509015828 | 44 | 165 | 0.0 | 0.0 | 0.00 | 0.07 | 0.07 | 74 | 1012.7 |
| 20260509015327 | 44 | 163 | 0.0 | 0.0 | 0.00 | 0.07 | 0.07 | 74 | 1012.8 |
| 20260509014823 | 44 | 179 | 0.9 | 0.9 | 0.00 | 0.07 | 0.07 | 73 | 1012.4 |
| 20260509014320 | 46 | 140 | 0.9 | 0.9 | 0.00 | 0.07 | 0.07 | 73 | 1012.4 |
| 20260509013817 | 46 | 141 | 0.9 | 0.9 | 0.00 | 0.07 | 0.07 | 73 | 1012.4 |
| 20260509013313 | 46 | 139 | 0.9 | 1.7 | 0.00 | 0.07 | 0.07 | 74 | 1012.5 |
| 20260509012809 | 46 | 145 | 0.0 | 0.0 | 0.00 | 0.07 | 0.07 | 74 | 1012.3 |
| 20260509012307 | 46 | 129 | 0.9 | 0.9 | 0.00 | 0.07 | 0.07 | 74 | 1012.2 |
| 20260509011803 | 46 | 142 | 0.9 | 0.9 | 0.00 | 0.07 | 0.07 | 74 | 1012.4 |
| 20260509011301 | 46 | 155 | 0.0 | 0.9 | 0.00 | 0.07 | 0.07 | 73 | 1012.3 |
| 20260509010758 | 46 | 159 | 0.0 | 0.9 | 0.00 | 0.07 | 0.07 | 73 | 1012.3 |
| 20260509010255 | 46 | 162 | 0.0 | 0.0 | 0.00 | 0.07 | 0.07 | 72 | 1012.1 |
| 20260509005752 | 47 | 162 | 0.0 | 0.0 | 0.00 | 0.07 | 0.07 | 70 | 1012.0 |
| 20260509005250 | 47 | 161 | 0.9 | 0.9 | 0.00 | 0.07 | 0.07 | 68 | 1011.8 |
| 20260509004744 | 47 | 338 | 0.9 | 0.9 | 0.00 | 0.07 | 0.07 | 68 | 1011.7 |
| 20260509004241 | 47 | 113 | 1.7 | 1.7 | 0.00 | 0.07 | 0.07 | 69 | 1011.6 |
| 20260509003739 | 47 | 166 | 0.0 | 0.0 | 0.00 | 0.07 | 0.07 | 68 | 1011.7 |
| 20260509003236 | 47 | 166 | 0.0 | 0.0 | 0.00 | 0.07 | 0.07 | 67 | 1011.6 |
| 20260509002734 | 47 | 167 | 0.0 | 0.0 | 0.00 | 0.07 | 0.07 | 67 | 1011.5 |
| 20260509002231 | 47 | 153 | 0.0 | 0.9 | 0.00 | 0.07 | 0.07 | 67 | 1011.5 |
| 20260509001729 | 47 | 128 | 0.9 | 0.9 | 0.00 | 0.07 | 0.07 | 66 | 1011.3 |
| 20260509001224 | 47 | 100 | 1.7 | 1.7 | 0.00 | 0.07 | 0.07 | 64 | 1011.3 |
| 20260509000723 | 48 | 58 | 1.7 | 1.7 | 0.00 | 0.07 | 0.07 | 63 | 1011.4 |
| 20260509000220 | 49 | 83 | 1.7 | 1.7 | 0.00 | 0.07 | 0.07 | 61 | 1011.4 |
| 20260508235716 | 50 | 92 | 1.7 | 1.7 | 0.00 | 0.07 | 0.07 | 58 | 1011.4 |
| 20260508235213 | 50 | 40 | 2.6 | 2.6 | 0.00 | 0.07 | 0.07 | 58 | 1011.3 |
| 20260508234711 | 51 | 109 | 0.9 | 0.9 | 0.00 | 0.07 | 0.07 | 56 | 1011.2 |
| 20260508234207 | 52 | 98 | 1.7 | 1.7 | 0.00 | 0.07 | 0.07 | 56 | 1011.1 |
| 20260508233706 | 52 | 72 | 1.7 | 1.7 | 0.00 | 0.07 | 0.07 | 51 | 1011.0 |
| 20260508233204 | 53 | 22 | 2.6 | 2.6 | 0.00 | 0.07 | 0.07 | 51 | 1011.0 |
| 20260508232701 | 54 | 343 | 2.6 | 2.6 | 0.00 | 0.07 | 0.07 | 49 | 1011.1 |
| 20260508232157 | 55 | 99 | 1.7 | 1.7 | 0.00 | 0.07 | 0.07 | 50 | 1011.1 |
| 20260508231655 | 55 | 212 | 1.7 | 1.7 | 0.00 | 0.07 | 0.07 | 47 | 1011.3 |
| 20260508231152 | 54 | 206 | 0.0 | 0.0 | 0.00 | 0.07 | 0.07 | 49 | 1011.1 |
| 20260508230649 | 55 | 275 | 0.9 | 1.7 | 0.00 | 0.07 | 0.07 | 49 | 1010.9 |
| 20260508230145 | 55 | 102 | 0.9 | 0.9 | 0.00 | 0.07 | 0.07 | 48 | 1011.2 |
| 20260508225643 | 55 | 229 | 0.9 | 0.9 | 0.00 | 0.07 | 0.07 | 49 | 1011.1 |
| 20260508225139 | 54 | 244 | 0.9 | 0.9 | 0.00 | 0.07 | 0.07 | 49 | 1010.8 |
| 20260508224637 | 54 | 48 | 3.5 | 4.3 | 0.00 | 0.07 | 0.07 | 49 | 1010.9 |
| 20260508224134 | 55 | 56 | 2.6 | 2.6 | 0.00 | 0.07 | 0.07 | 48 | 1011.0 |
| 20260508223632 | 55 | 279 | 3.5 | 5.2 | 0.00 | 0.07 | 0.07 | 47 | 1011.0 |
| 20260508223129 | 56 | 357 | 2.6 | 2.6 | 0.00 | 0.07 | 0.07 | 47 | 1010.9 |
| 20260508222626 | 55 | 40 | 1.7 | 1.7 | 0.00 | 0.07 | 0.07 | 47 | 1010.9 |
| 20260508222123 | 55 | 298 | 2.6 | 2.6 | 0.00 | 0.07 | 0.07 | 48 | 1011.0 |
| 20260508221619 | 55 | 5 | 2.6 | 4.3 | 0.00 | 0.07 | 0.07 | 49 | 1010.9 |
| 20260508221115 | 56 | 314 | 3.5 | 4.3 | 0.00 | 0.07 | 0.07 | 47 | 1011.0 |
| 20260508220612 | 57 | 327 | 4.3 | 5.2 | 0.00 | 0.07 | 0.07 | 46 | 1011.0 |
| 20260508220108 | 57 | 185 | 0.0 | 0.9 | 0.00 | 0.07 | 0.07 | 45 | 1011.1 |
| 20260508215605 | 55 | 183 | 0.9 | 0.9 | 0.00 | 0.07 | 0.07 | 46 | 1011.0 |
| 20260508215102 | 54 | 240 | 1.7 | 1.7 | 0.00 | 0.07 | 0.07 | 48 | 1011.2 |
| 20260508214559 | 55 | 101 | 1.7 | 1.7 | 0.00 | 0.07 | 0.07 | 49 | 1011.1 |
| 20260508214055 | 54 | 81 | 0.9 | 1.7 | 0.00 | 0.07 | 0.07 | 48 | 1011.2 |
| 20260508213553 | 55 | 28 | 2.6 | 2.6 | 0.00 | 0.07 | 0.07 | 49 | 1011.1 |
| 20260508213048 | 55 | 116 | 1.7 | 1.7 | 0.00 | 0.07 | 0.07 | 48 | 1011.1 |
| 20260508212545 | 57 | 283 | 3.5 | 4.3 | 0.00 | 0.07 | 0.07 | 46 | 1011.1 |
| 20260508212042 | 57 | 260 | 1.7 | 1.7 | 0.00 | 0.07 | 0.07 | 46 | 1011.3 |
| 20260508211537 | 55 | 190 | 1.7 | 1.7 | 0.00 | 0.07 | 0.07 | 46 | 1011.0 |
| 20260508211034 | 56 | 11 | 3.5 | 4.3 | 0.00 | 0.07 | 0.07 | 47 | 1011.2 |
| 20260508210530 | 55 | 313 | 2.6 | 2.6 | 0.00 | 0.07 | 0.07 | 47 | 1011.1 |
| 20260508210028 | 56 | 233 | 1.7 | 2.6 | 0.00 | 0.07 | 0.07 | 46 | 1011.4 |
| 20260508205525 | 56 | 25 | 4.3 | 5.2 | 0.00 | 0.07 | 0.07 | 47 | 1011.4 |
| 20260508205021 | 55 | 310 | 1.7 | 1.7 | 0.00 | 0.07 | 0.07 | 48 | 1011.2 |
| 20260508204518 | 55 | 209 | 2.6 | 2.6 | 0.00 | 0.07 | 0.07 | 47 | 1011.5 |
| 20260508204014 | 55 | 298 | 3.5 | 5.2 | 0.00 | 0.07 | 0.07 | 47 | 1011.4 |
| 20260508203510 | 56 | 301 | 4.3 | 6.1 | 0.00 | 0.07 | 0.07 | 45 | 1011.6 |
| 20260508203006 | 55 | 264 | 2.6 | 4.3 | 0.00 | 0.07 | 0.07 | 48 | 1011.7 |
| 20260508202503 | 56 | 121 | 0.9 | 1.7 | 0.00 | 0.07 | 0.07 | 49 | 1011.8 |
| 20260508202000 | 56 | 291 | 5.2 | 7.0 | 0.00 | 0.07 | 0.07 | 46 | 1011.6 |
| 20260508201456 | 54 | 270 | 3.5 | 4.3 | 0.00 | 0.07 | 0.07 | 49 | 1011.7 |
| 20260508200953 | 55 | 167 | 0.0 | 0.9 | 0.00 | 0.07 | 0.07 | 49 | 1011.7 |
| 20260508200450 | 54 | 194 | 1.7 | 1.7 | 0.00 | 0.07 | 0.07 | 52 | 1012.0 |
| 20260508195945 | 53 | 13 | 3.5 | 5.2 | 0.00 | 0.07 | 0.07 | 53 | 1012.2 |
| 20260508195443 | 54 | 298 | 3.5 | 4.3 | 0.00 | 0.07 | 0.07 | 53 | 1012.0 |
| 20260508194939 | 53 | 276 | 5.2 | 7.0 | 0.00 | 0.07 | 0.07 | 53 | 1012.0 |
| 20260508194436 | 53 | 347 | 3.5 | 4.3 | 0.00 | 0.07 | 0.07 | 55 | 1011.9 |
| 20260508193933 | 52 | 189 | 1.7 | 2.6 | 0.00 | 0.07 | 0.07 | 56 | 1012.2 |
| 20260508193430 | 52 | 226 | 4.3 | 5.2 | 0.00 | 0.07 | 0.07 | 54 | 1012.3 |
| 20260508192926 | 52 | 309 | 5.2 | 7.8 | 0.00 | 0.07 | 0.07 | 55 | 1012.5 |
| 20260508192423 | 52 | 328 | 4.3 | 6.1 | 0.00 | 0.07 | 0.07 | 57 | 1012.4 |
| 20260508191920 | 53 | 235 | 1.7 | 1.7 | 0.00 | 0.07 | 0.07 | 56 | 1012.5 |
| 20260508191417 | 52 | 4 | 1.7 | 2.6 | 0.00 | 0.07 | 0.07 | 57 | 1012.4 |
| 20260508190914 | 50 | 240 | 0.9 | 2.6 | 0.00 | 0.07 | 0.07 | 60 | 1012.5 |
| 20260508190411 | 50 | 305 | 4.3 | 6.1 | 0.00 | 0.07 | 0.07 | 58 | 1012.6 |
| 20260508185907 | 51 | 13 | 7.8 | 12.2 | 0.00 | 0.07 | 0.07 | 58 | 1012.6 |
| 20260508185405 | 52 | 273 | 2.6 | 5.2 | 0.00 | 0.07 | 0.07 | 58 | 1012.8 |
| 20260508184901 | 50 | 239 | 4.3 | 5.2 | 0.00 | 0.07 | 0.07 | 60 | 1012.8 |
| 20260508184359 | 50 | 298 | 6.1 | 7.8 | 0.00 | 0.07 | 0.07 | 60 | 1012.8 |
| 20260508183850 | 50 | 335 | 3.5 | 5.2 | 0.00 | 0.07 | 0.07 | 60 | 1012.7 |
| 20260508183346 | 51 | 291 | 5.2 | 7.0 | 0.00 | 0.07 | 0.07 | 60 | 1012.8 |
| 20260508182842 | 53 | 327 | 3.5 | 6.1 | 0.00 | 0.07 | 0.07 | 59 | 1012.9 |
| 20260508182339 | 50 | 182 | 0.0 | 0.0 | 0.00 | 0.07 | 0.07 | 65 | 1012.9 |
| 20260508181835 | 49 | 228 | 2.6 | 4.3 | 0.00 | 0.07 | 0.07 | 64 | 1012.9 |
| 20260508181332 | 50 | 156 | 0.0 | 0.0 | 0.00 | 0.07 | 0.07 | 65 | 1013.0 |
| 20260508180829 | 50 | 231 | 3.5 | 5.2 | 0.00 | 0.07 | 0.07 | 67 | 1013.1 |
| 20260508180326 | 49 | 273 | 3.5 | 5.2 | 0.00 | 0.07 | 0.07 | 68 | 1013.1 |
| 20260508175822 | 49 | 190 | 0.0 | 0.0 | 0.00 | 0.07 | 0.07 | 71 | 1013.3 |
| 20260508175318 | 48 | 161 | 0.0 | 0.0 | 0.00 | 0.07 | 0.07 | 73 | 1013.0 |
| 20260508174817 | 48 | 157 | 1.7 | 1.7 | 0.00 | 0.07 | 0.07 | 71 | 1013.0 |
| 20260508174314 | 48 | 192 | 0.9 | 0.9 | 0.00 | 0.07 | 0.07 | 72 | 1013.0 |
| 20260508173810 | 47 | 197 | 0.0 | 0.0 | 0.00 | 0.07 | 0.07 | 73 | 1013.4 |
| 20260508173307 | 46 | 345 | 2.6 | 2.6 | 0.00 | 0.07 | 0.07 | 73 | 1013.1 |
| 20260508172803 | 47 | 222 | 1.7 | 1.7 | 0.00 | 0.07 | 0.07 | 73 | 1013.5 |
| 20260508172300 | 47 | 232 | 1.7 | 1.7 | 0.00 | 0.07 | 0.07 | 72 | 1013.4 |
| 20260508171756 | 48 | 210 | 0.9 | 2.6 | 0.00 | 0.07 | 0.07 | 72 | 1013.3 |
| 20260508171253 | 48 | 176 | 0.0 | 0.9 | 0.00 | 0.07 | 0.07 | 72 | 1013.4 |
| 20260508170750 | 48 | 267 | 2.6 | 2.6 | 0.00 | 0.07 | 0.07 | 73 | 1013.4 |
| 20260508170248 | 48 | 131 | 0.9 | 0.9 | 0.00 | 0.07 | 0.07 | 75 | 1013.4 |
| 20260508165744 | 47 | 181 | 2.6 | 2.6 | 0.00 | 0.07 | 0.07 | 76 | 1013.4 |
| 20260508165242 | 46 | 98 | 0.0 | 0.9 | 0.00 | 0.07 | 0.07 | 79 | 1013.3 |
| 20260508164738 | 45 | 51 | 0.9 | 1.7 | 0.00 | 0.07 | 0.07 | 83 | 1013.4 |
| 20260508164234 | 44 | 195 | 2.6 | 4.3 | 0.00 | 0.07 | 0.07 | 85 | 1013.5 |
| 20260508163733 | 44 | 165 | 0.9 | 0.9 | 0.00 | 0.07 | 0.07 | 88 | 1013.6 |
| 20260508163230 | 43 | 185 | 1.7 | 1.7 | 0.00 | 0.07 | 0.07 | 89 | 1013.5 |
| 20260508162725 | 42 | 219 | 2.6 | 2.6 | 0.00 | 0.07 | 0.07 | 89 | 1013.7 |
| 20260508162223 | 42 | 183 | 1.7 | 1.7 | 0.00 | 0.07 | 0.07 | 90 | 1013.8 |
| 20260508161719 | 41 | 182 | 0.9 | 0.9 | 0.00 | 0.07 | 0.07 | 90 | 1014.0 |
| 20260508161217 | 40 | 141 | 0.0 | 0.9 | 0.00 | 0.07 | 0.07 | 90 | 1013.9 |
| 20260508160715 | 40 | 148 | 0.9 | 0.9 | 0.00 | 0.07 | 0.07 | 90 | 1014.0 |
| 20260508160213 | 40 | 232 | 1.7 | 1.7 | 0.00 | 0.07 | 0.07 | 90 | 1013.9 |
| 20260508155709 | 39 | 51 | 0.9 | 1.7 | 0.00 | 0.07 | 0.07 | 90 | 1013.8 |
| 20260508155206 | 39 | 180 | 0.0 | 0.9 | 0.00 | 0.07 | 0.07 | 90 | 1014.2 |
| 20260508154703 | 39 | 172 | 0.9 | 0.9 | 0.00 | 0.07 | 0.07 | 90 | 1014.1 |
| 20260508154200 | 39 | 267 | 0.9 | 1.7 | 0.00 | 0.07 | 0.07 | 90 | 1013.9 |
| 20260508153656 | 40 | 185 | 0.9 | 0.9 | 0.00 | 0.07 | 0.07 | 90 | 1013.9 |
| 20260508153154 | 39 | 180 | 0.0 | 0.9 | 0.00 | 0.07 | 0.07 | 90 | 1013.8 |
| 20260508152650 | 39 | 85 | 1.7 | 1.7 | 0.07 | 0.07 | 0.07 | 89 | 1013.7 |
| 20260508152146 | 39 | 148 | 0.9 | 0.9 | 0.07 | 0.07 | 0.07 | 89 | 1013.6 |
| 20260508151643 | 39 | 143 | 0.9 | 0.9 | 0.00 | 0.06 | 0.06 | 89 | 1013.9 |
| 20260508151139 | 39 | 183 | 0.9 | 0.9 | 0.00 | 0.06 | 0.06 | 89 | 1013.9 |
| 20260508150636 | 39 | 191 | 0.9 | 0.9 | 0.00 | 0.06 | 0.06 | 89 | 1013.8 |
| 20260508150133 | 39 | 216 | 0.9 | 0.9 | 0.00 | 0.06 | 0.06 | 89 | 1013.7 |
| 20260508145629 | 39 | 170 | 0.0 | 0.0 | 0.00 | 0.06 | 0.06 | 89 | 1013.4 |
| 20260508145125 | 39 | 167 | 0.0 | 0.0 | 0.00 | 0.06 | 0.06 | 89 | 1013.8 |
| 20260508144623 | 39 | 157 | 0.0 | 0.9 | 0.00 | 0.06 | 0.06 | 89 | 1013.8 |
| 20260508144121 | 38 | 340 | 1.7 | 1.7 | 0.00 | 0.06 | 0.06 | 88 | 1013.7 |
| 20260508143618 | 38 | 336 | 3.5 | 4.3 | 0.00 | 0.06 | 0.06 | 88 | 1013.7 |
| 20260508143114 | 38 | 20 | 4.3 | 5.2 | 0.00 | 0.06 | 0.06 | 88 | 1013.7 |
| 20260508142611 | 38 | 28 | 2.6 | 2.6 | 0.00 | 0.06 | 0.06 | 87 | 1013.9 |
| 20260508142108 | 38 | 22 | 1.7 | 1.7 | 0.05 | 0.06 | 0.06 | 87 | 1013.7 |
| 20260508141604 | 39 | 9 | 2.6 | 2.6 | 0.12 | 0.06 | 0.06 | 87 | 1013.7 |
| 20260508141102 | 39 | 327 | 2.6 | 2.6 | 0.07 | 0.05 | 0.05 | 86 | 1013.8 |
| 20260508140559 | 40 | 58 | 1.7 | 2.6 | 0.05 | 0.04 | 0.04 | 86 | 1013.8 |
| 20260508140055 | 40 | 19 | 5.2 | 7.0 | 0.05 | 0.04 | 0.04 | 85 | 1013.7 |
| 20260508135551 | 40 | 356 | 1.7 | 1.7 | 0.07 | 0.03 | 0.03 | 84 | 1013.7 |
| 20260508135047 | 41 | 294 | 4.3 | 5.2 | 0.07 | 0.03 | 0.03 | 83 | 1013.4 |
| 20260508134544 | 41 | 206 | 0.9 | 1.7 | 0.00 | 0.02 | 0.02 | 82 | 1013.4 |
| 20260508134041 | 41 | 193 | 1.7 | 1.7 | 0.00 | 0.02 | 0.02 | 81 | 1013.0 |
| 20260508133538 | 41 | 195 | 1.7 | 1.7 | 0.05 | 0.02 | 0.02 | 81 | 1013.3 |
| 20260508133035 | 41 | 189 | 0.9 | 0.9 | 0.12 | 0.02 | 0.02 | 79 | 1013.0 |
| 20260508132533 | 42 | 195 | 0.9 | 0.9 | 0.07 | 0.01 | 0.01 | 78 | 1012.8 |
| 20260508132030 | 43 | 243 | 1.7 | 2.6 | 0.00 | 0.00 | 0.00 | 79 | 1012.9 |
| 20260508131525 | 43 | 207 | 1.7 | 2.6 | 0.00 | 0.00 | 0.00 | 79 | 1012.8 |
| 20260508131022 | 43 | 167 | 0.0 | 0.9 | 0.00 | 0.00 | 0.00 | 80 | 1012.7 |
| 20260508130519 | 43 | 180 | 0.0 | 0.0 | 0.00 | 0.00 | 0.00 | 80 | 1012.5 |
| 20260508130015 | 43 | 171 | 0.9 | 1.7 | 0.00 | 0.00 | 0.00 | 81 | 1012.7 |
| 20260508125511 | 42 | 171 | 0.0 | 0.9 | 0.00 | 0.00 | 0.00 | 81 | 1012.4 |
| 20260508125009 | 42 | 162 | 0.9 | 0.9 | 0.00 | 0.00 | 0.00 | 81 | 1012.3 |
| 20260508124507 | 42 | 158 | 0.9 | 1.7 | 0.00 | 0.00 | 0.00 | 81 | 1012.0 |
| 20260508124004 | 43 | 159 | 0.9 | 0.9 | 0.00 | 0.00 | 0.00 | 81 | 1012.2 |
| 20260508123503 | 42 | 166 | 2.6 | 2.6 | 0.00 | 0.00 | 0.00 | 81 | 1012.1 |
| 20260508122958 | 42 | 136 | 2.6 | 2.6 | 0.00 | 0.00 | 0.00 | 82 | 1012.1 |
| 20260508122455 | 42 | 120 | 2.6 | 2.6 | 0.00 | 0.00 | 0.00 | 84 | 1012.1 |
| 20260508121952 | 41 | 117 | 1.7 | 1.7 | 0.00 | 0.00 | 0.00 | 85 | 1012.2 |
| 20260508121450 | 41 | 125 | 1.7 | 1.7 | 0.00 | 0.00 | 0.00 | 87 | 1012.2 |
| 20260508120948 | 40 | 181 | 2.6 | 2.6 | 0.00 | 0.00 | 0.00 | 87 | 1012.3 |
| 20260508120446 | 41 | 170 | 0.9 | 1.7 | 0.00 | 0.00 | 0.00 | 88 | 1012.4 |
| 20260508115943 | 41 | 162 | 1.7 | 1.7 | 0.00 | 0.00 | 0.00 | 89 | 1012.3 |
| 20260508115441 | 40 | 136 | 0.0 | 0.0 | 0.00 | 0.00 | 0.00 | 90 | 1012.3 |
| 20260508114937 | 39 | 153 | 1.7 | 1.7 | 0.00 | 0.00 | 0.00 | 90 | 1012.3 |
| 20260508114435 | 38 | 144 | 0.9 | 0.9 | 0.00 | 0.00 | 0.00 | 90 | 1012.4 |
| 20260508113931 | 38 | 151 | 0.9 | 0.9 | 0.00 | 0.00 | 0.00 | 90 | 1012.4 |
| 20260508113429 | 39 | 154 | 0.9 | 0.9 | 0.00 | 0.00 | 0.00 | 90 | 1012.4 |
| 20260508112926 | 37 | 145 | 0.9 | 0.9 | 0.00 | 0.00 | 0.00 | 91 | 1012.6 |
| 20260508112422 | 37 | 140 | 0.9 | 0.9 | 0.00 | 0.00 | 0.00 | 91 | 1012.6 |
| 20260508111919 | 37 | 144 | 0.0 | 0.0 | 0.00 | 0.00 | 0.00 | 90 | 1012.6 |
| 20260508111416 | 37 | 144 | 0.0 | 0.0 | 0.00 | 0.00 | 0.00 | 90 | 1012.7 |
| 20260508110913 | 37 | 146 | 0.0 | 0.0 | 0.00 | 0.00 | 0.00 | 90 | 1012.7 |
| 20260508110410 | 37 | 160 | 0.0 | 0.0 | 0.00 | 0.00 | 0.00 | 90 | 1013.0 |
| 20260508105904 | 36 | 151 | 0.0 | 0.0 | 0.00 | 0.00 | 0.00 | 90 | 1012.8 |
| 20260508105401 | 36 | 150 | 0.0 | 0.0 | 0.00 | 0.00 | 0.00 | 90 | 1012.8 |
| 20260508104859 | 36 | 151 | 0.9 | 0.9 | 0.00 | 0.00 | 0.00 | 90 | 1012.5 |
| 20260508104356 | 36 | 154 | 0.0 | 0.9 | 0.00 | 0.00 | 0.00 | 90 | 1012.5 |
| 20260508103853 | 36 | 153 | 0.0 | 0.0 | 0.00 | 0.00 | 0.00 | 90 | 1012.4 |
| 20260508103349 | 35 | 154 | 0.0 | 0.0 | 0.00 | 0.00 | 0.00 | 90 | 1012.5 |
| 20260508102847 | 35 | 153 | 0.0 | 0.0 | 0.00 | 0.00 | 0.00 | 90 | 1012.6 |
| 20260508102345 | 35 | 152 | 0.0 | 0.0 | 0.00 | 0.00 | 0.00 | 89 | 1012.8 |
| 20260508101842 | 35 | 151 | 0.0 | 0.0 | 0.00 | 0.00 | 0.00 | 89 | 1012.7 |
| 20260508101339 | 35 | 160 | 0.0 | 0.0 | 0.00 | 0.00 | 0.00 | 89 | 1012.8 |
| 20260508100837 | 35 | 152 | 0.0 | 0.0 | 0.00 | 0.00 | 0.00 | 89 | 1012.6 |
| 20260508100335 | 35 | 157 | 0.0 | 0.0 | 0.00 | 0.00 | 0.00 | 89 | 1012.6 |
| 20260508095830 | 35 | 145 | 0.0 | 0.0 | 0.00 | 0.00 | 0.00 | 89 | 1012.5 |
| 20260508095328 | 34 | 141 | 0.0 | 0.9 | 0.00 | 0.00 | 0.00 | 89 | 1012.6 |
| 20260508094825 | 34 | 153 | 0.0 | 0.0 | 0.00 | 0.00 | 0.00 | 88 | 1012.7 |
| 20260508094322 | 34 | 129 | 0.9 | 0.9 | 0.00 | 0.00 | 0.00 | 88 | 1012.5 |
| 20260508093819 | 34 | 138 | 0.9 | 0.9 | 0.00 | 0.00 | 0.00 | 88 | 1012.5 |
| 20260508093317 | 34 | 135 | 0.9 | 0.9 | 0.00 | 0.00 | 0.00 | 88 | 1012.5 |
| 20260508092814 | 35 | 150 | 0.0 | 0.0 | 0.00 | 0.00 | 0.00 | 88 | 1012.3 |
| 20260508092314 | 35 | 153 | 0.0 | 0.0 | 0.00 | 0.00 | 0.00 | 87 | 1012.3 |
| 20260508091810 | 36 | 153 | 0.0 | 0.0 | 0.00 | 0.00 | 0.00 | 87 | 1012.1 |
| 20260508091306 | 35 | 142 | 0.0 | 0.0 | 0.00 | 0.00 | 0.00 | 87 | 1012.2 |
| 20260508090803 | 35 | 135 | 0.0 | 0.9 | 0.00 | 0.00 | 0.00 | 87 | 1012.5 |
| 20260508090301 | 35 | 136 | 0.9 | 0.9 | 0.00 | 0.00 | 0.00 | 87 | 1012.5 |
| 20260508085757 | 35 | 149 | 0.0 | 0.0 | 0.00 | 0.00 | 0.00 | 87 | 1012.2 |
| 20260508085255 | 35 | 120 | 0.0 | 0.0 | 0.00 | 0.00 | 0.00 | 87 | 1012.3 |
| 20260508084750 | 35 | 149 | 0.0 | 0.9 | 0.00 | 0.00 | 0.00 | 86 | 1012.1 |
| 20260508084248 | 36 | 148 | 0.0 | 0.0 | 0.00 | 0.00 | 0.00 | 86 | 1012.1 |
| 20260508083746 | 37 | 125 | 0.9 | 0.9 | 0.00 | 0.00 | 0.00 | 86 | 1012.0 |
| 20260508083243 | 36 | 92 | 1.7 | 2.6 | 0.00 | 0.00 | 0.00 | 86 | 1012.3 |
| 20260508082742 | 36 | 109 | 1.7 | 1.7 | 0.00 | 0.00 | 0.00 | 85 | 1012.2 |